Tracking 29594 objects as of 20-Sep-2024
HD Live streaming from Space Station
objects crossing your sky now

COSMOS 1823 DEB

Track COSMOS 1823 DEB now!
10-day predictions


NORAD ID: 39810
Int'l Code: 1987-020EJ
Perigee: 1,477.2 km
Apogee: 1,536.4 km
Inclination: 73.7 °
Period: 116.0 minutes
Semi major axis: 7877 km
RCS: 0.0123 m2 (small)
Launch date: February 20, 1987
Source: Commonwealth of Independent States (former USSR) (CIS)
Launch site: PLESETSK MISSILE AND SPACE COMPLEX (PKMTR)

Note: This is SATELLITE DEBRIS
Your satellite tracking list
Your tracking list is empty




NASA's NSSDC Master Catalog

Two Line Element Set (TLE):
1 39810U 87020EJ  24258.44229159  .00000235  00000-0  18434-2 0  9997
2 39810  73.7043 318.2629 0037553 304.1881  55.5606 12.41636585467865
Source of the keplerian elements: AFSPC